Weather History for Lorain / Elyria, OH

Change the Weather History Date:

Tuesday, October 18, 2011

  Actual Average (KCLE) Record (KCLE)
Temperature  
Mean Temperature 51 °F 53 °F  
Max Temperature 55 °F 62 °F 84 °F (1950)
Min Temperature 48 °F 45 °F 28 °F (1876)
Degree Days  
Heating Degree Days 14 12  
Month to date heating degree days 173  
Since 1 July heating degree days 276  
Cooling Degree Days 0 0  
Month to date cooling degree days 10  
Year to date cooling degree days 814  
Growing Degree Days 1 (Base 50)    
Moisture  
Dew Point 39 °F    
Average Humidity 64    
Maximum Humidity 86    
Minimum Humidity 45    
Precipitation  
Precipitation 0.04 in 0.09 in 1.86 in (1996)
Month to date precipitation 1.83  
Year to date precipitation 31.18  
Snow  
Snow 0.00 in 0.00 in - ()
Month to date snowfall 0.0  
Since 1 July snowfall 0.0  
Since 1 September snowfall 0.0  
Snow Depth -    
Sea Level Pressure  
Sea Level Pressure 29.81 in    
Wind  
Wind Speed 4 mph (WNW)    
Max Wind Speed 6 mph    
Max Gust Speed -    
Visibility 10 miles    
Events Rain    
T = Trace of Precipitation, MM = Missing Value Source: NWS Daily Summary

Daily Weather History Graph

Daily Weather History Graph

Search for Another Location

Airport:

Trip Planner

Search our weather history database for the weather conditions in past years. The results will help you decide how hot, cold, wet, or windy it might be!

Date:

Astronomy

Oct. 18, 2011 Rise Set
Actual Time 7:43 AM EDT 6:43 PM EDT
Civil Twilight 7:15 AM EDT 7:11 PM EDT
Nautical Twilight 6:43 AM EDT 7:43 PM EDT
Astronomical Twilight 6:11 AM EDT 8:15 PM EDT
Moon 11:21 PM EDT (10/18) 1:36 PM EDT (10/18)
Length of Visible Light 11h 55m
Length of Day
11h 00m
Waning Gibbous, 65% of the Moon is Illuminated
Oct 18
Waning Gibbous
Oct 19
Last Quarter
Oct 26
New
Nov 2
First Quarter
Nov 10
Full

Hourly Weather History & Observations

Time (EDT) Temp. Dew Point Humidity Pressure Visibility Wind Dir Wind Speed Gust Speed Precip Events Conditions
12:53 AM 53.1 °F 32.0 °F 45% 29.84 in 10.0 mi West 5.8 mph - N/A   Overcast
1:53 AM 52.0 °F 34.0 °F 50% 29.83 in 10.0 mi WSW 4.6 mph - N/A   Overcast
2:53 AM 51.1 °F 34.0 °F 52% 29.82 in 10.0 mi West 5.8 mph - N/A   Overcast
3:53 AM 51.1 °F 33.1 °F 50% 29.81 in 10.0 mi West 5.8 mph - N/A   Overcast
4:53 AM 50.0 °F 35.1 °F 57% 29.81 in 10.0 mi West 4.6 mph - N/A   Overcast
5:53 AM 51.1 °F 35.1 °F 54% 29.81 in 10.0 mi West 3.5 mph - N/A   Overcast
6:53 AM 50.0 °F 36.0 °F 59% 29.81 in 10.0 mi Calm Calm - N/A   Overcast
7:53 AM 48.9 °F 39.0 °F 69% 29.82 in 10.0 mi Calm Calm - N/A   Overcast
8:53 AM 51.1 °F 37.9 °F 61% 29.83 in 10.0 mi WSW 3.5 mph - N/A   Overcast
9:53 AM 54.0 °F 37.0 °F 53% 29.84 in 10.0 mi WNW 5.8 mph - N/A   Partly Cloudy
10:53 AM 54.0 °F 37.0 °F 53% 29.84 in 10.0 mi Calm Calm - N/A   Mostly Cloudy
11:53 AM 53.1 °F 39.0 °F 59% 29.84 in 10.0 mi WSW 3.5 mph - N/A   Overcast
12:53 PM 53.1 °F 39.0 °F 59% 29.84 in 10.0 mi Calm Calm - 0.00 in   Overcast
2:53 PM 54.0 °F 39.0 °F 57% 29.80 in 10.0 mi Calm Calm - N/A   Overcast
3:53 PM 53.1 °F 41.0 °F 64% 29.82 in 10.0 mi Calm Calm - 0.00 in   Overcast
4:53 PM 50.0 °F 45.0 °F 83% 29.82 in 10.0 mi Variable 4.6 mph - 0.03 in Rain Light Rain
5:53 PM 50.0 °F 46.0 °F 86% 29.80 in 10.0 mi East 3.5 mph - 0.00 in   Scattered Clouds
6:53 PM 50.0 °F 43.0 °F 77% 29.79 in 10.0 mi ENE 3.5 mph - N/A   Overcast
7:53 PM 50.0 °F 44.1 °F 80% 29.80 in 10.0 mi ENE 3.5 mph - N/A   Overcast
9:53 PM 50.0 °F 43.0 °F 77% 29.77 in 10.0 mi NNE 5.8 mph - N/A   Mostly Cloudy
10:53 PM 51.1 °F 44.1 °F 77% 29.78 in 10.0 mi NNW 4.6 mph - 0.00 in Rain Light Rain
11:53 PM 50.0 °F 46.0 °F 86% 29.76 in 10.0 mi East 4.6 mph - 0.01 in Rain Light Rain